,,,PA_Meas_PMT16A,,PR_Meas_QMR101_102,,RH_Meas_QMH101,,SR_Meas_QMS101,,TA_Meas_QMH101,,GenWind,,GenWind,
date,time,status,PA,status,PR,status,RH,status,SR,status,TA,status,DirAvg,status,SpdAvg,
2010-04-01, 00:00:04,VALID,1011.1,VALID,0.5,VALID,100.149,VALID,0,VALID,25.2318,VALID,75,VALID,1.28984,
2010-04-01, 00:01:04,VALID,1011.1,VALID,0.5,VALID,100.164,VALID,0,VALID,25.2727,VALID,91,VALID,1.13008,
2010-04-01, 00:02:04,VALID,1011.1,VALID,0.5,VALID,100.141,VALID,0,VALID,25.2727,VALID,108,VALID,1.17813,
2010-04-01, 00:03:04,VALID,1011.08,VALID,0.5,VALID,100.119,VALID,0,VALID,25.2922,VALID,114,VALID,1.48711,
2010-04-01, 00:04:04,VALID,1011.08,VALID,0.5,VALID,100.126,VALID,0,VALID,25.2708,VALID,147,VALID,1.7957,
2010-04-01, 00:05:04,VALID,1011.05,VALID,0.5,VALID,100.088,VALID,0,VALID,25.2903,VALID,139,VALID,1.22227,
2010-04-01, 00:06:04,VALID,1011.04,VALID,0.5,VALID,100.103,VALID,0,VALID,25.2922,VALID,130,VALID,1.86406,
2010-04-01, 00:07:04,VALID,1011.01,VALID,0,VALID,100.111,VALID,0,VALID,25.3117,VALID,128,VALID,1.31133,
2010-04-01, 00:08:04,VALID,1011.01,VALID,0.5,VALID,100.073,VALID,0,VALID,25.3312,VALID,112,VALID,1.32383,
2010-04-01, 00:09:04,VALID,1011.01,VALID,0.5,VALID,100.08,VALID,0,VALID,25.3312,VALID,123,VALID,1.35078,
2010-04-01, 00:10:04,VALID,1011.03,VALID,0.5,VALID,100.08,VALID,0,VALID,25.3117,VALID,120,VALID,2.25117,
2010-04-01, 00:11:04,VALID,1011.03,VALID,1,VALID,100.065,VALID,0,VALID,25.3312,VALID,123,VALID,2.47422,
2010-04-01, 00:12:04,VALID,1010.99,VALID,1,VALID,100.05,VALID,0,VALID,25.3507,VALID,125,VALID,2.00625,
2010-04-01, 00:13:04,VALID,1011,VALID,1,VALID,100.035,VALID,0,VALID,25.3702,VALID,122,VALID,1.53437,
2010-04-01, 00:14:04,VALID,1010.99,VALID,1.5,VALID,100.012,VALID,0,VALID,25.3683,VALID,113,VALID,1.22617,
2010-04-01, 00:15:04,VALID,1010.94,VALID,1,VALID,100.019,VALID,0,VALID,25.3897,VALID,102,VALID,1.74727,
2010-04-01, 00:16:04,VALID,1010.9,VALID,1,VALID,100.012,VALID,0,VALID,25.3897,VALID,92,VALID,2.16953,
2010-04-01, 00:17:04,VALID,1010.9,VALID,0.5,VALID,99.9965,VALID,0,VALID,25.3683,VALID,79,VALID,1.59414,
2010-04-01, 00:18:04,VALID,1010.86,VALID,1,VALID,100.004,VALID,0,VALID,25.3897,VALID,79,VALID,1.62148,
2010-04-01, 00:19:04,VALID,1010.83,VALID,0.5,VALID,99.9965,VALID,0,VALID,25.3897,VALID,81,VALID,1.68984,
2010-04-01, 00:20:04,VALID,1010.82,VALID,1.5,VALID,99.9813,VALID,0,VALID,25.3897,VALID,77,VALID,1.59609,
2010-04-01, 00:21:04,VALID,1010.78,VALID,0.5,VALID,99.9813,VALID,0,VALID,25.3897,VALID,86,VALID,1.09453,
2010-04-01, 00:22:04,VALID,1010.78,VALID,1,VALID,99.9965,VALID,0,VALID,25.3507,VALID,119,VALID,0.782422,
2010-04-01, 00:23:04,VALID,1010.8,VALID,0.5,VALID,99.9813,VALID,0,VALID,25.3702,VALID,169,VALID,1.32578,
2010-04-01, 00:24:04,VALID,1010.76,VALID,1,VALID,100.027,VALID,0,VALID,25.3117,VALID,178,VALID,1.57891,
2010-04-01, 00:25:04,VALID,1010.74,VALID,0.5,VALID,100.012,VALID,0,VALID,25.3312,VALID,166,VALID,1.29727,
2010-04-01, 00:26:04,VALID,1010.74,VALID,0.5,VALID,99.9584,VALID,0,VALID,25.3721,VALID,164,VALID,0.871484,
2010-04-01, 00:27:04,VALID,1010.73,VALID,0.5,VALID,99.9431,VALID,0,VALID,25.3507,VALID,158,VALID,1.22969,
2010-04-01, 00:28:04,VALID,1010.73,VALID,0.5,VALID,99.9584,VALID,0,VALID,25.3702,VALID,154,VALID,1.16641,
2010-04-01, 00:29:04,VALID,1010.7,VALID,0.5,VALID,99.966,VALID,0,VALID,25.3507,VALID,152,VALID,1.48984,
2010-04-01, 00:30:04,VALID,1010.69,VALID,0,VALID,99.966,VALID,0,VALID,25.3312,VALID,145,VALID,1.24063,
2010-04-01, 00:31:04,VALID,1010.66,VALID,0.5,VALID,99.9126,VALID,0,VALID,25.3702,VALID,151,VALID,1.19961,
2010-04-01, 00:32:04,VALID,1010.65,VALID,0,VALID,99.9355,VALID,0,VALID,25.3702,VALID,151,VALID,1.19609,
2010-04-01, 00:33:04,VALID,1010.64,VALID,0.5,VALID,99.9202,VALID,0,VALID,25.3721,VALID,179,VALID,0.946875,
2010-04-01, 00:34:04,VALID,1010.62,VALID,0,VALID,99.905,VALID,0,VALID,25.3507,VALID,165,VALID,0.821094,
2010-04-01, 00:35:04,VALID,1010.62,VALID,0.5,VALID,99.8974,VALID,0,VALID,25.3312,VALID,136,VALID,0.5875,
2010-04-01, 00:36:04,VALID,1010.6,VALID,0,VALID,99.9736,VALID,0,VALID,25.2532,VALID,146,VALID,1.73945,
2010-04-01, 00:37:04,VALID,1010.58,VALID,0,VALID,99.9736,VALID,0,VALID,25.2532,VALID,163,VALID,1.01133,
2010-04-01, 00:38:04,VALID,1010.58,VALID,0.5,VALID,99.9736,VALID,0,VALID,25.2532,VALID,182,VALID,1.29375,
2010-04-01, 00:39:04,VALID,1010.59,VALID,0,VALID,99.9431,VALID,0,VALID,25.2337,VALID,169,VALID,0.948828,
2010-04-01, 00:40:04,VALID,1010.61,VALID,0.5,VALID,99.9508,VALID,0,VALID,25.2532,VALID,145,VALID,2.03047,
2010-04-01, 00:41:04,VALID,1010.6,VALID,0.5,VALID,99.8821,VALID,0,VALID,25.2941,VALID,151,VALID,1.36484,
2010-04-01, 00:42:04,VALID,1010.6,VALID,0.5,VALID,99.8897,VALID,0,VALID,25.2727,VALID,120,VALID,1.65586,
2010-04-01, 00:43:04,VALID,1010.59,VALID,0,VALID,99.8821,VALID,0,VALID,25.2532,VALID,114,VALID,1.80156,
2010-04-01, 00:44:04,VALID,1010.58,VALID,0.5,VALID,99.9508,VALID,0,VALID,25.1947,VALID,120,VALID,1.47969,
2010-04-01, 00:45:04,VALID,1010.56,VALID,0.5,VALID,99.966,VALID,0,VALID,25.1752,VALID,153,VALID,1.44375,
2010-04-01, 00:46:04,VALID,1010.51,VALID,0,VALID,99.9889,VALID,0,VALID,25.1167,VALID,131,VALID,2.54609,
2010-04-01, 00:47:04,VALID,1010.46,VALID,0,VALID,99.9508,VALID,0,VALID,25.1167,VALID,134,VALID,2.76484,
2010-04-01, 00:48:04,VALID,1010.44,VALID,0,VALID,99.9126,VALID,0,VALID,25.1362,VALID,114,VALID,1.73203,
2010-04-01, 00:49:04,VALID,1010.42,VALID,0.5,VALID,99.8669,VALID,0,VALID,25.1752,VALID,80,VALID,1.34844,
2010-04-01, 00:50:04,VALID,1010.44,VALID,0,VALID,99.8516,VALID,0,VALID,25.2142,VALID,109,VALID,1.40469,
2010-04-01, 00:51:04,VALID,1010.42,VALID,0.5,VALID,99.7906,VALID,0,VALID,25.2337,VALID,97,VALID,1.93281,
2010-04-01, 00:52:04,VALID,1010.4,VALID,0,VALID,99.7754,VALID,0,VALID,25.2727,VALID,90,VALID,1.92656,
2010-04-01, 00:53:04,VALID,1010.39,VALID,0,VALID,99.7754,VALID,0,VALID,25.2922,VALID,111,VALID,1.63516,
2010-04-01, 00:54:04,VALID,1010.4,VALID,0,VALID,99.7906,VALID,0,VALID,25.3117,VALID,107,VALID,1.68516,
2010-04-01, 00:55:04,VALID,1010.39,VALID,0,VALID,99.783,VALID,0,VALID,25.3312,VALID,108,VALID,0.88125,
2010-04-01, 00:56:04,VALID,1010.35,VALID,0.5,VALID,99.7677,VALID,0,VALID,25.3507,VALID,128,VALID,0.632422,
2010-04-01, 00:57:04,VALID,1010.34,VALID,0,VALID,99.783,VALID,0,VALID,25.3507,VALID,132,VALID,0.575391,
2010-04-01, 00:58:04,VALID,1010.34,VALID,0,VALID,99.8135,VALID,0,VALID,25.3507,VALID,116,VALID,0.667188,
2010-04-01, 00:59:04,VALID,1010.3,VALID,0,VALID,99.7754,VALID,0,VALID,25.3507,VALID,99,VALID,0.825,
2010-04-01, 01:00:04,VALID,1010.25,VALID,0.5,VALID,99.7982,VALID,0,VALID,25.3702,VALID,81,VALID,1.26367,
2010-04-01, 01:01:04,VALID,1010.22,VALID,0,VALID,99.8211,VALID,0,VALID,25.3507,VALID,50,VALID,1.50312,
2010-04-01, 01:02:04,VALID,1010.2,VALID,0,VALID,99.8287,VALID,0,VALID,25.3312,VALID,53,VALID,1.58477,
2010-04-01, 01:03:04,VALID,1010.18,VALID,0,VALID,99.8287,VALID,0,VALID,25.3098,VALID,54,VALID,1.79062,
2010-04-01, 01:04:04,VALID,1010.17,VALID,0,VALID,99.844,VALID,0,VALID,25.3117,VALID,50,VALID,1.46016,
2010-04-01, 01:05:04,VALID,1010.16,VALID,0,VALID,99.8287,VALID,0,VALID,25.3312,VALID,48,VALID,1.38867,
2010-04-01, 01:06:04,VALID,1010.16,VALID,0.5,VALID,99.844,VALID,0,VALID,25.3117,VALID,23,VALID,1.44102,
2010-04-01, 01:07:04,VALID,1010.14,VALID,0,VALID,99.8135,VALID,0,VALID,25.2903,VALID,44,VALID,1.29219,
2010-04-01, 01:08:04,VALID,1010.16,VALID,0,VALID,99.8059,VALID,0,VALID,25.3312,VALID,75,VALID,0.914844,
2010-04-01, 01:09:04,VALID,1010.17,VALID,0,VALID,99.783,VALID,0,VALID,25.3312,VALID,72,VALID,1.51484,
2010-04-01, 01:10:04,VALID,1010.16,VALID,0,VALID,99.7677,VALID,0,VALID,25.3312,VALID,75,VALID,0.986719,
2010-04-01, 01:11:04,VALID,1010.15,VALID,0,VALID,99.7982,VALID,0,VALID,25.3117,VALID,59,VALID,1.15898,
2010-04-01, 01:12:04,VALID,1010.16,VALID,0,VALID,99.7982,VALID,0,VALID,25.3117,VALID,46,VALID,1.35859,
2010-04-01, 01:13:04,VALID,1010.13,VALID,0,VALID,99.8287,VALID,0,VALID,25.2727,VALID,67,VALID,1.24922,
2010-04-01, 01:14:04,VALID,1010.16,VALID,0,VALID,99.8287,VALID,0,VALID,25.2727,VALID,71,VALID,1.28906,
2010-04-01, 01:15:04,VALID,1010.14,VALID,0,VALID,99.8211,VALID,0,VALID,25.2727,VALID,85,VALID,0.830078,
2010-04-01, 01:16:04,VALID,1010.15,VALID,0,VALID,99.8135,VALID,0,VALID,25.2532,VALID,71,VALID,1.04375,
2010-04-01, 01:17:04,VALID,1010.12,VALID,0,VALID,99.7982,VALID,0,VALID,25.2532,VALID,60,VALID,1.24883,
2010-04-01, 01:18:04,VALID,1010.1,VALID,0,VALID,99.8287,VALID,0,VALID,25.2532,VALID,95,VALID,0.548437,
2010-04-01, 01:19:04,VALID,1010.1,VALID,0,VALID,99.8211,VALID,0,VALID,25.2337,VALID,74,VALID,0.857031,
2010-04-01, 01:20:04,VALID,1010.1,VALID,0,VALID,99.8211,VALID,0,VALID,25.2142,VALID,65,VALID,0.607031,
2010-04-01, 01:21:04,VALID,1010.1,VALID,0,VALID,99.8211,VALID,0,VALID,25.2337,VALID,86,VALID,0.543359,
2010-04-01, 01:22:04,VALID,1010.1,VALID,0.5,VALID,99.7982,VALID,0,VALID,25.2337,VALID,54,VALID,0.857813,
2010-04-01, 01:23:04,VALID,1010.05,VALID,0,VALID,99.7677,VALID,0,VALID,25.2337,VALID,70,VALID,0.951953,
2010-04-01, 01:24:04,VALID,1010.05,VALID,0,VALID,99.8364,VALID,0,VALID,25.1928,VALID,79,VALID,1.21523,
2010-04-01, 01:25:04,VALID,1010.04,VALID,0,VALID,99.7906,VALID,0,VALID,25.2142,VALID,78,VALID,0.790234,
2010-04-01, 01:26:04,VALID,1010.01,VALID,0,VALID,99.8364,VALID,0,VALID,25.1752,VALID,26,VALID,0.428906,
2010-04-01, 01:27:04,VALID,1009.99,VALID,0,VALID,99.8211,VALID,0,VALID,25.1557,VALID,13,VALID,0.592969,
2010-04-01, 01:28:04,VALID,1010,VALID,0,VALID,99.8211,VALID,0,VALID,25.1362,VALID,43,VALID,0.470703,
2010-04-01, 01:29:04,VALID,1009.98,VALID,0,VALID,99.8592,VALID,0,VALID,25.0973,VALID,39,VALID,0.454688,
2010-04-01, 01:30:04,VALID,1010,VALID,0,VALID,99.8364,VALID,0,VALID,25.1167,VALID,39,VALID,0.390625,
2010-04-01, 01:31:04,VALID,1009.97,VALID,0,VALID,99.8745,VALID,0,VALID,25.0797,VALID,16,VALID,0.598437,
2010-04-01, 01:32:04,VALID,1009.96,VALID,0,VALID,99.8821,VALID,0,VALID,25.0388,VALID,16,VALID,0.244531,
2010-04-01, 01:33:04,VALID,1009.94,VALID,0,VALID,99.8745,VALID,0,VALID,24.9998,VALID,77,VALID,0.459766,
2010-04-01, 01:34:04,VALID,1009.92,VALID,0,VALID,99.8516,VALID,0,VALID,24.9998,VALID,36,VALID,0.316797,
2010-04-01, 01:35:04,VALID,1009.93,VALID,0,VALID,99.8516,VALID,0,VALID,24.9998,VALID,38,VALID,0.227734,
2010-04-01, 01:36:04,VALID,1009.89,VALID,0,VALID,99.844,VALID,0.105969,VALID,25.0017,VALID,41,VALID,0.263672,
2010-04-01, 01:37:04,VALID,1009.91,VALID,0,VALID,99.8059,VALID,0.105969,VALID,24.9803,VALID,41,VALID,0.0714844,
2010-04-01, 01:38:04,VALID,1009.92,VALID,0,VALID,99.7982,VALID,0,VALID,24.9803,VALID,40,VALID,0.00351562,
2010-04-01, 01:39:04,VALID,1009.91,VALID,0,VALID,99.7982,VALID,0,VALID,24.9608,VALID,315,VALID,0.633594,
2010-04-01, 01:40:04,VALID,1009.94,VALID,0,VALID,99.8287,VALID,0,VALID,24.9608,VALID,340,VALID,0.38125,
2010-04-01, 01:41:04,VALID,1009.97,VALID,0,VALID,99.8211,VALID,0,VALID,24.9413,VALID,338,VALID,0.366016,
2010-04-01, 01:42:04,VALID,1009.98,VALID,0,VALID,99.8364,VALID,0,VALID,24.9218,VALID,314,VALID,0.542188,
2010-04-01, 01:43:04,VALID,1010,VALID,0,VALID,99.8364,VALID,0,VALID,24.9023,VALID,307,VALID,0.513672,
2010-04-01, 01:44:04,VALID,1010.03,VALID,0,VALID,99.8287,VALID,0,VALID,24.9218,VALID,295,VALID,0.348437,
2010-04-01, 01:45:04,VALID,1010,VALID,0,VALID,99.8059,VALID,0,VALID,24.9023,VALID,295,VALID,0.611719,
2010-04-01, 01:46:04,VALID,1010.03,VALID,0,VALID,99.7906,VALID,0,VALID,24.9023,VALID,314,VALID,0.519531,
2010-04-01, 01:47:04,VALID,1009.96,VALID,0,VALID,99.783,VALID,0,VALID,24.8809,VALID,313,VALID,0.03125,
2010-04-01, 01:48:04,VALID,1009.92,VALID,0,VALID,99.8059,VALID,0,VALID,24.8828,VALID,336,VALID,0.383984,
2010-04-01, 01:49:04,VALID,1009.88,VALID,0,VALID,99.8516,VALID,0,VALID,24.8633,VALID,127,VALID,0.607813,
2010-04-01, 01:50:04,VALID,1009.84,VALID,0,VALID,99.8211,VALID,0,VALID,24.8438,VALID,68,VALID,1,
2010-04-01, 01:51:04,VALID,1009.79,VALID,0,VALID,99.8059,VALID,0,VALID,24.8244,VALID,78,VALID,0.403516,
2010-04-01, 01:52:04,VALID,1009.77,VALID,0,VALID,99.7982,VALID,0,VALID,24.8049,VALID,102,VALID,1.13555,
2010-04-01, 01:53:04,VALID,1009.74,VALID,0,VALID,99.8211,VALID,0,VALID,24.8049,VALID,102,VALID,1.42305,
2010-04-01, 01:54:04,VALID,1009.75,VALID,0,VALID,99.8287,VALID,0,VALID,24.7854,VALID,90,VALID,1.02695,
2010-04-01, 01:55:04,VALID,1009.74,VALID,0,VALID,99.8516,VALID,0,VALID,24.7464,VALID,79,VALID,1.30664,
2010-04-01, 01:56:04,VALID,1009.73,VALID,0,VALID,99.8516,VALID,0.105969,VALID,24.725,VALID,62,VALID,0.979688,
2010-04-01, 01:57:04,VALID,1009.75,VALID,0,VALID,99.8364,VALID,0,VALID,24.7269,VALID,82,VALID,0.845703,
2010-04-01, 01:58:04,VALID,1009.74,VALID,0,VALID,99.844,VALID,0,VALID,24.7074,VALID,90,VALID,0.684375,
2010-04-01, 01:59:04,VALID,1009.73,VALID,0,VALID,99.8287,VALID,0,VALID,24.7269,VALID,87,VALID,0.842188,
2010-04-01, 02:00:04,VALID,1009.68,VALID,0,VALID,99.8135,VALID,0,VALID,24.7269,VALID,74,VALID,0.652344,
2010-04-01, 02:01:04,VALID,1009.66,VALID,0,VALID,99.8059,VALID,0,VALID,24.7269,VALID,102,VALID,0.528125,
2010-04-01, 02:02:04,VALID,1009.62,VALID,0,VALID,99.7982,VALID,0,VALID,24.7854,VALID,101,VALID,0.816406,
2010-04-01, 02:03:04,VALID,1009.57,VALID,0,VALID,99.7754,VALID,0,VALID,24.7659,VALID,91,VALID,0.844922,
2010-04-01, 02:04:04,VALID,1009.53,VALID,0,VALID,99.8059,VALID,0,VALID,24.7464,VALID,85,VALID,0.765625,
2010-04-01, 02:05:04,VALID,1009.56,VALID,0,VALID,99.8059,VALID,0,VALID,24.7269,VALID,101,VALID,0.788281,
2010-04-01, 02:06:04,VALID,1009.55,VALID,0,VALID,99.8135,VALID,0,VALID,24.7464,VALID,99,VALID,0.725391,
2010-04-01, 02:07:04,VALID,1009.51,VALID,0,VALID,99.8135,VALID,0,VALID,24.7074,VALID,99,VALID,0.476953,
2010-04-01, 02:08:04,VALID,1009.56,VALID,0,VALID,99.8059,VALID,0,VALID,24.7074,VALID,98,VALID,0.440625,
2010-04-01, 02:09:04,VALID,1009.55,VALID,0,VALID,99.7906,VALID,0.105969,VALID,24.7269,VALID,58,VALID,0.469531,
2010-04-01, 02:10:04,VALID,1009.58,VALID,0,VALID,99.7982,VALID,0,VALID,24.7269,VALID,40,VALID,0.254687,
2010-04-01, 02:11:04,VALID,1009.57,VALID,0,VALID,99.7982,VALID,0,VALID,24.7055,VALID,40,VALID,0,
2010-04-01, 02:12:04,VALID,1009.55,VALID,0,VALID,99.8135,VALID,0,VALID,24.7074,VALID,40,VALID,0,
2010-04-01, 02:13:04,VALID,1009.52,VALID,0,VALID,99.8135,VALID,0,VALID,24.6879,VALID,40,VALID,0,
2010-04-01, 02:14:04,VALID,1009.48,VALID,0,VALID,99.7906,VALID,0,VALID,24.6879,VALID,40,VALID,0,
2010-04-01, 02:15:04,VALID,1009.47,VALID,0,VALID,99.7906,VALID,0,VALID,24.6879,VALID,40,VALID,0,
2010-04-01, 02:16:04,VALID,1009.45,VALID,0,VALID,99.7754,VALID,0,VALID,24.7074,VALID,40,VALID,0,
2010-04-01, 02:17:04,VALID,1009.39,VALID,0,VALID,99.7754,VALID,0.105969,VALID,24.7074,VALID,40,VALID,0,
2010-04-01, 02:18:04,VALID,1009.4,VALID,0,VALID,99.7906,VALID,0,VALID,24.686,VALID,40,VALID,0,
2010-04-01, 02:19:04,VALID,1009.38,VALID,0,VALID,99.7982,VALID,0,VALID,24.6879,VALID,40,VALID,0,
2010-04-01, 02:20:04,VALID,1009.35,VALID,0,VALID,99.8059,VALID,0,VALID,24.6471,VALID,40,VALID,0,
2010-04-01, 02:21:04,VALID,1009.39,VALID,0,VALID,99.7754,VALID,0,VALID,24.6684,VALID,40,VALID,0,
2010-04-01, 02:22:04,VALID,1009.37,VALID,0,VALID,99.7677,VALID,0,VALID,24.6684,VALID,41,VALID,0.355078,
2010-04-01, 02:23:04,VALID,1009.34,VALID,0,VALID,99.7677,VALID,0,VALID,24.6879,VALID,78,VALID,0.66875,
2010-04-01, 02:24:04,VALID,1009.34,VALID,0,VALID,99.7601,VALID,0,VALID,24.6684,VALID,69,VALID,0.39375,
2010-04-01, 02:25:04,VALID,1009.31,VALID,0,VALID,99.7677,VALID,0,VALID,24.6684,VALID,69,VALID,0.488281,
2010-04-01, 02:26:04,VALID,1009.3,VALID,0,VALID,99.8211,VALID,0,VALID,24.6489,VALID,69,VALID,0.436719,
2010-04-01, 02:27:04,VALID,1009.3,VALID,0,VALID,99.8135,VALID,0,VALID,24.6294,VALID,69,VALID,0.429297,
2010-04-01, 02:28:04,VALID,1009.28,VALID,0,VALID,99.7525,VALID,0,VALID,24.6684,VALID,69,VALID,0.473828,
2010-04-01, 02:29:04,VALID,1009.29,VALID,0,VALID,99.7449,VALID,0,VALID,24.6879,VALID,69,VALID,0.157422,
2010-04-01, 02:30:04,VALID,1009.31,VALID,0,VALID,99.722,VALID,0,VALID,24.6879,VALID,69,VALID,0,
2010-04-01, 02:31:04,VALID,1009.29,VALID,0,VALID,99.7144,VALID,0,VALID,24.686,VALID,69,VALID,0,
2010-04-01, 02:32:04,VALID,1009.29,VALID,0,VALID,99.7144,VALID,0,VALID,24.7269,VALID,69,VALID,0.1625,
2010-04-01, 02:33:04,VALID,1009.3,VALID,0,VALID,99.6991,VALID,0,VALID,24.7055,VALID,69,VALID,0.317578,
2010-04-01, 02:34:04,VALID,1009.32,VALID,0,VALID,99.722,VALID,0.105969,VALID,24.7464,VALID,72,VALID,0.450391,
2010-04-01, 02:35:04,VALID,1009.34,VALID,0,VALID,99.722,VALID,0.105969,VALID,24.725,VALID,72,VALID,0.0371094,
2010-04-01, 02:36:04,VALID,1009.36,VALID,0,VALID,99.7296,VALID,0,VALID,24.7269,VALID,71,VALID,0.339063,
2010-04-01, 02:37:04,VALID,1009.35,VALID,0,VALID,99.7525,VALID,0.105969,VALID,24.6879,VALID,71,VALID,0.260938,
2010-04-01, 02:38:04,VALID,1009.36,VALID,0,VALID,99.7525,VALID,0,VALID,24.6471,VALID,68,VALID,0.340234,
2010-04-01, 02:39:04,VALID,1009.34,VALID,0,VALID,99.7525,VALID,0,VALID,24.6276,VALID,66,VALID,0,
2010-04-01, 02:40:04,VALID,1009.34,VALID,0,VALID,99.7449,VALID,0,VALID,24.6684,VALID,66,VALID,0,
2010-04-01, 02:41:04,VALID,1009.31,VALID,0,VALID,99.7601,VALID,0.105969,VALID,24.6684,VALID,66,VALID,0,
2010-04-01, 02:42:04,VALID,1009.32,VALID,0,VALID,99.7525,VALID,0,VALID,24.6471,VALID,66,VALID,0,
2010-04-01, 02:43:04,VALID,1009.27,VALID,0,VALID,99.7372,VALID,0.105969,VALID,24.6684,VALID,66,VALID,0,
2010-04-01, 02:44:04,VALID,1009.26,VALID,0,VALID,99.7372,VALID,0,VALID,24.6489,VALID,66,VALID,0,
2010-04-01, 02:45:04,VALID,1009.25,VALID,0,VALID,99.722,VALID,0,VALID,24.6666,VALID,66,VALID,0,
2010-04-01, 02:46:04,VALID,1009.26,VALID,0,VALID,99.7144,VALID,0,VALID,24.686,VALID,67,VALID,0.176953,
2010-04-01, 02:47:04,VALID,1009.24,VALID,0,VALID,99.6838,VALID,0,VALID,24.7055,VALID,81,VALID,0.475781,
2010-04-01, 02:48:04,VALID,1009.26,VALID,0,VALID,99.661,VALID,0,VALID,24.725,VALID,82,VALID,0.459375,
2010-04-01, 02:49:04,VALID,1009.28,VALID,0,VALID,99.6915,VALID,0,VALID,24.7074,VALID,119,VALID,0.512891,
2010-04-01, 02:50:04,VALID,1009.28,VALID,0,VALID,99.6838,VALID,0.105969,VALID,24.686,VALID,119,VALID,0.476172,
2010-04-01, 02:51:04,VALID,1009.33,VALID,0,VALID,99.6991,VALID,0,VALID,24.7074,VALID,120,VALID,0.405469,
2010-04-01, 02:52:04,VALID,1009.31,VALID,0,VALID,99.6915,VALID,0,VALID,24.7074,VALID,120,VALID,0.408984,
2010-04-01, 02:53:04,VALID,1009.35,VALID,0,VALID,99.6991,VALID,0,VALID,24.7074,VALID,137,VALID,0.557031,
2010-04-01, 02:54:04,VALID,1009.38,VALID,0,VALID,99.661,VALID,0.105969,VALID,24.7055,VALID,176,VALID,0.458594,
2010-04-01, 02:55:04,VALID,1009.38,VALID,0,VALID,99.6686,VALID,0,VALID,24.725,VALID,186,VALID,0.214062,
2010-04-01, 02:56:04,VALID,1009.37,VALID,0,VALID,99.6381,VALID,0,VALID,24.7659,VALID,186,VALID,0.146094,
2010-04-01, 02:57:04,VALID,1009.39,VALID,0,VALID,99.6457,VALID,0.105969,VALID,24.7854,VALID,186,VALID,0.373828,
2010-04-01, 02:58:04,VALID,1009.38,VALID,0,VALID,99.6533,VALID,0,VALID,24.7464,VALID,186,VALID,0.506641,
2010-04-01, 02:59:04,VALID,1009.36,VALID,0,VALID,99.6838,VALID,0.105969,VALID,24.725,VALID,186,VALID,0.182031,
2010-04-01, 03:00:04,VALID,1009.35,VALID,0,VALID,99.6457,VALID,0,VALID,24.7659,VALID,186,VALID,0.162109,
2010-04-01, 03:01:04,VALID,1009.33,VALID,0,VALID,99.6533,VALID,0.105969,VALID,24.7445,VALID,186,VALID,0,
2010-04-01, 03:02:04,VALID,1009.36,VALID,0,VALID,99.661,VALID,0.105969,VALID,24.7464,VALID,186,VALID,0,
2010-04-01, 03:03:04,VALID,1009.34,VALID,0,VALID,99.6533,VALID,0,VALID,24.725,VALID,186,VALID,0,
2010-04-01, 03:04:04,VALID,1009.39,VALID,0,VALID,99.6686,VALID,0.105969,VALID,24.7445,VALID,186,VALID,0,
2010-04-01, 03:05:04,VALID,1009.37,VALID,0,VALID,99.661,VALID,0,VALID,24.725,VALID,186,VALID,0,
2010-04-01, 03:06:04,VALID,1009.38,VALID,0,VALID,99.6686,VALID,0.105969,VALID,24.725,VALID,186,VALID,0,
2010-04-01, 03:07:04,VALID,1009.41,VALID,0,VALID,99.6838,VALID,0,VALID,24.725,VALID,186,VALID,0.224609,
2010-04-01, 03:08:04,VALID,1009.4,VALID,0,VALID,99.6762,VALID,0.105969,VALID,24.725,VALID,186,VALID,0.526563,
2010-04-01, 03:09:04,VALID,1009.42,VALID,0,VALID,99.7067,VALID,0.105969,VALID,24.7464,VALID,186,VALID,0.409766,
2010-04-01, 03:10:04,VALID,1009.43,VALID,0,VALID,99.7067,VALID,0.105969,VALID,24.7269,VALID,186,VALID,0.38125,
2010-04-01, 03:11:04,VALID,1009.42,VALID,0,VALID,99.7067,VALID,0.105969,VALID,24.686,VALID,186,VALID,0.517578,
2010-04-01, 03:12:04,VALID,1009.42,VALID,0,VALID,99.7067,VALID,0,VALID,24.6666,VALID,186,VALID,0.344141,
2010-04-01, 03:13:04,VALID,1009.41,VALID,0,VALID,99.6991,VALID,0,VALID,24.6879,VALID,186,VALID,0.141406,
2010-04-01, 03:14:04,VALID,1009.41,VALID,0,VALID,99.722,VALID,0,VALID,24.6684,VALID,103,VALID,0,
2010-04-01, 03:15:04,VALID,1009.39,VALID,0,VALID,99.7067,VALID,0.105969,VALID,24.6684,VALID,103,VALID,0,
2010-04-01, 03:16:04,VALID,1009.39,VALID,0,VALID,99.7144,VALID,0.105969,VALID,24.6276,VALID,103,VALID,0,
2010-04-01, 03:17:04,VALID,1009.39,VALID,0,VALID,99.6991,VALID,0,VALID,24.6684,VALID,103,VALID,0,
2010-04-01, 03:18:04,VALID,1009.4,VALID,0,VALID,99.7067,VALID,0.105969,VALID,24.6276,VALID,103,VALID,0,
2010-04-01, 03:19:04,VALID,1009.41,VALID,0,VALID,99.7144,VALID,0,VALID,24.6294,VALID,103,VALID,0,
2010-04-01, 03:20:04,VALID,1009.4,VALID,0,VALID,99.7144,VALID,0.105969,VALID,24.6294,VALID,103,VALID,0.171094,
2010-04-01, 03:21:04,VALID,1009.4,VALID,0,VALID,99.7144,VALID,0,VALID,24.6099,VALID,103,VALID,0.242188,
2010-04-01, 03:22:04,VALID,1009.42,VALID,0,VALID,99.722,VALID,0,VALID,24.6099,VALID,103,VALID,0.371875,
2010-04-01, 03:23:04,VALID,1009.43,VALID,0,VALID,99.6991,VALID,0.105969,VALID,24.5905,VALID,103,VALID,0.180859,
2010-04-01, 03:24:04,VALID,1009.43,VALID,0,VALID,99.6838,VALID,0.105969,VALID,24.6099,VALID,103,VALID,0,
2010-04-01, 03:25:04,VALID,1009.42,VALID,0,VALID,99.6762,VALID,0.105969,VALID,24.6294,VALID,103,VALID,0.00429688,
2010-04-01, 03:26:04,VALID,1009.45,VALID,0,VALID,99.6762,VALID,0,VALID,24.6099,VALID,103,VALID,0.142969,
2010-04-01, 03:27:04,VALID,1009.44,VALID,0,VALID,99.661,VALID,0,VALID,24.6081,VALID,103,VALID,0,
2010-04-01, 03:28:04,VALID,1009.44,VALID,0,VALID,99.6457,VALID,0,VALID,24.6489,VALID,103,VALID,0,
2010-04-01, 03:29:04,VALID,1009.44,VALID,0,VALID,99.6533,VALID,0,VALID,24.6489,VALID,103,VALID,0,
2010-04-01, 03:30:04,VALID,1009.47,VALID,0,VALID,99.6533,VALID,0,VALID,24.6489,VALID,103,VALID,0,
2010-04-01, 03:31:04,VALID,1009.46,VALID,0,VALID,99.6305,VALID,0,VALID,24.6276,VALID,103,VALID,0,
2010-04-01, 03:32:04,VALID,1009.48,VALID,0,VALID,99.6152,VALID,0.105969,VALID,24.6666,VALID,103,VALID,0,
2010-04-01, 03:33:04,VALID,1009.47,VALID,0,VALID,99.6457,VALID,0.105969,VALID,24.6684,VALID,103,VALID,0.00585938,
2010-04-01, 03:34:04,VALID,1009.48,VALID,0,VALID,99.6457,VALID,0,VALID,24.6489,VALID,103,VALID,0,
2010-04-01, 03:35:04,VALID,1009.49,VALID,0,VALID,99.6533,VALID,0,VALID,24.6276,VALID,103,VALID,0,
2010-04-01, 03:36:04,VALID,1009.48,VALID,0,VALID,99.661,VALID,0,VALID,24.6294,VALID,103,VALID,0,
2010-04-01, 03:37:04,VALID,1009.49,VALID,0,VALID,99.661,VALID,0,VALID,24.6294,VALID,103,VALID,0,
2010-04-01, 03:38:04,VALID,1009.53,VALID,0,VALID,99.661,VALID,0,VALID,24.6099,VALID,103,VALID,0,
2010-04-01, 03:39:04,VALID,1009.52,VALID,0,VALID,99.661,VALID,0,VALID,24.6099,VALID,103,VALID,0,
2010-04-01, 03:40:04,VALID,1009.56,VALID,0,VALID,99.6457,VALID,0,VALID,24.5886,VALID,103,VALID,0,
2010-04-01, 03:41:04,VALID,1009.57,VALID,0,VALID,99.6381,VALID,0,VALID,24.6294,VALID,103,VALID,0,
2010-04-01, 03:42:04,VALID,1009.55,VALID,0,VALID,99.6533,VALID,0,VALID,24.5886,VALID,346,VALID,0.26875,
2010-04-01, 03:43:04,VALID,1009.55,VALID,0,VALID,99.6533,VALID,0,VALID,24.5905,VALID,346,VALID,0.319141,
2010-04-01, 03:44:04,VALID,1009.58,VALID,0,VALID,99.6533,VALID,0,VALID,24.5691,VALID,346,VALID,0.179297,
2010-04-01, 03:45:04,VALID,1009.58,VALID,0,VALID,99.6686,VALID,0,VALID,24.571,VALID,346,VALID,0,
2010-04-01, 03:46:04,VALID,1009.57,VALID,0,VALID,99.6533,VALID,0,VALID,24.5923,VALID,346,VALID,0.103125,